Location: Ravensburg
(47.7866°N, 9.6124°E)
Time: 20:19:56
(UTC+02:00)

ITAMSAT 1 - Pass Details

Date: 14 March 2026
Orbit: 782 x 793 km, 98.7° (Epoch: 14 April)

Event Time Altitude Azimuth Distance (km) Brightness Sun altitude
Exits shadow 22:35:09 24° 304° (NW) 1,596 9.7 -38.1°
Drops below altitude 10° 22:37:42 10° 327° (NNW) 2,354 10.8 -38.4°
Sets 22:40:18 0° 338° (NNW) 3,289 11.7 -38.6°
